Simultaneous Nadir Overpasses (SNOs) Predictions

Prediction of SNOs near equator between AQUA and NPP Satellite Orbit:

Table of predicted SNOs near equator for the next 14.0 days since TLE Epoch: 11/8/2013
Index Date (AQUA) Time (AQUA) AQUA Lat,Lon Date (NPP) Time (NPP) NPP Lat,Lon Distance(km) Time Diff (sec)
1 11/10/2013 15:40:21 -18.10, 146.11 11/10/2013 15:30:24 -18.10, 146.11 0.27 597
2 11/10/2013 16:25:22 1.80, -42.71 11/10/2013 16:16:35 1.77, -42.83 13.64 527
3 11/10/2013 17:13:29 2.74, 125.91 11/10/2013 17:05:58 2.80, 125.52 43.37 451
4 11/10/2013 18:01:44 -7.33, -65.49 11/10/2013 17:55:28 -7.46, -66.13 72.19 376
5 11/13/2013 07:55:13 -11.98, -96.66 11/13/2013 07:45:35 -11.98, -96.66 0.32 578
6 11/13/2013 08:41:34 0.50, 73.42 11/13/2013 08:33:08 0.46, 73.24 20.75 506
7 11/13/2013 09:29:41 4.04,-117.95 11/13/2013 09:22:31 4.11,-118.40 50.42 430
8 11/13/2013 10:17:57 -8.57, 50.64 11/13/2013 10:12:02 -8.70, 49.94 79.07 355
9 11/16/2013 00:09:40 -4.40, 20.84 11/16/2013 00:00:21 -4.40, 20.85 0.55 559
10 11/16/2013 00:57:45 -0.80,-170.43 11/16/2013 00:49:41 -0.84,-170.68 28.24 484
11 11/16/2013 01:45:53 5.28, -1.82 11/16/2013 01:39:04 5.41, -2.32 57.79 409
12 11/16/2013 02:34:07 -9.93, 166.80 11/16/2013 02:28:34 -10.06, 166.03 86.07 333
13 11/18/2013 15:43:52 29.95, -36.82 11/18/2013 15:33:52 30.09, -36.95 19.46 600
14 11/18/2013 16:25:38 -2.42, 137.13 11/18/2013 16:16:41 -2.40, 137.08 6.65 537
15 11/18/2013 17:13:54 -2.11, -54.28 11/18/2013 17:06:12 -2.19, -54.60 36.03 462
16 11/18/2013 18:02:00 6.71, 114.36 11/18/2013 17:55:34 6.82, 113.78 65.20 386
17 11/18/2013 18:50:16 -11.23, -77.04 11/18/2013 18:45:05 -11.41, -77.88 93.20 311
18 11/21/2013 07:56:59 17.67, 82.02 11/21/2013 07:47:15 17.68, 82.01 0.89 584
19 11/21/2013 08:41:46 -1.05,-106.70 11/21/2013 08:33:12 -1.00,-106.82 14.80 514
20 11/21/2013 09:30:01 -3.54, 61.90 11/21/2013 09:22:42 -3.65, 61.52 44.01 439
21 11/21/2013 10:18:08 8.08,-129.47 11/21/2013 10:12:05 8.23,-130.12 72.94 363




NCC Satellite Simultaneous Nadir Overpasses (SNOs) Prediction Service
